This is the latest recevied weather packets stored in our database for station/object N1IJV-10. If no packets are shown the sender has not sent any weather packets the latest 10 day(s).
| Time | Temp. | Humidity | Pressure | Rain* | Wind** | Luminosity | Snow |
|---|---|---|---|---|---|---|---|
| 1778093163 | 13.33° C | 42% | 1013.4 hPa | 0 mm | - | 196 W/m² | - |
| 1778092860 | 13.33° C | 46% | 1013.3 hPa | 0 mm | - | 308 W/m² | - |
| 1778092556 | 12.78° C | 44% | 1013.2 hPa | 0 mm | - | 275 W/m² | - |
| 1778092252 | 12.78° C | 43% | 1013.3 hPa | 0 mm | - | 283 W/m² | - |
| 1778091950 | 11.67° C | 45% | 1013.1 hPa | 0 mm | - | 583 W/m² | - |
| 1778091647 | 12.22° C | 45% | 1013.4 hPa | 0 mm | - | 115 W/m² | - |
| 1778091345 | 12.78° C | 44% | 1013.3 hPa | 0 mm | - | 168 W/m² | - |
| 1778091041 | 12.78° C | 45% | 1013.1 hPa | 0 mm | - | 247 W/m² | - |
| 1778090738 | 11.67° C | 43% | 1013 hPa | 0 mm | - | 194 W/m² | - |
| 1778090435 | 12.22° C | 44% | 1013.1 hPa | 0 mm | - | 132 W/m² | - |
| 1778090131 | 12.22° C | 48% | 1013.4 hPa | 0 mm | - | 201 W/m² | - |
| 1778089828 | 12.22° C | 44% | 1013.3 hPa | 0 mm | - | 212 W/m² | - |
| 1778089527 | 12.22° C | 46% | 1013.4 hPa | 0 mm | - | 269 W/m² | - |
| 1778089222 | 12.22° C | 46% | 1013.4 hPa | 0 mm | - | 198 W/m² | - |
| 1778088920 | 11.67° C | 46% | 1013.5 hPa | 0 mm | - | 167 W/m² | - |
| 1778088617 | 12.22° C | 50% | 1013.6 hPa | 0 mm | - | 185 W/m² | - |
| 1778088314 | 12.22° C | 46% | 1013.5 hPa | 0 mm | - | 188 W/m² | - |
| 1778088010 | 12.22° C | 43% | 1013.5 hPa | 0 mm | - | 178 W/m² | - |
| 1778087708 | 12.22° C | 45% | 1013.7 hPa | 0 mm | - | 203 W/m² | - |
| 1778087405 | 12.78° C | 43% | 1013.4 hPa | 0 mm | - | 273 W/m² | - |
| 1778087101 | 12.22° C | 45% | 1013.5 hPa | 0 mm | - | 212 W/m² | - |
| 1778086794 | 12.22° C | 46% | 1013.7 hPa | 0 mm | - | 228 W/m² | - |
| 1778086492 | 12.22° C | 44% | 1013.7 hPa | 0 mm | - | 227 W/m² | - |
| 1778086183 | 13.33° C | 42% | 1013.7 hPa | 0 mm | - | 195 W/m² | - |
| 1778085880 | 12.78° C | 45% | 1013.6 hPa | 0 mm | - | 852 W/m² | - |
* Rain latest hour (hover to see other rain measurements)
** Current wind speed in m/s (hover to see current wind gust speed)